TimeMST,TemperatureF,Dew PointF,Humidity,Sea Level PressureIn,VisibilityMPH,Wind Direction,Wind SpeedMPH,Gust SpeedMPH,PrecipitationIn,Events,Conditions,WindDirDegrees,DateUTC
12:53 AM,32.0,15.1,50,29.89,10.0,NW,5.8,-,N/A,,Partly Cloudy,320,2013-03-04 07:53:00
1:53 AM,30.0,12.9,49,29.91,10.0,NNW,24.2,32.2,N/A,,Clear,330,2013-03-04 08:53:00
2:53 AM,28.0,10.9,49,29.93,10.0,NW,26.5,33.4,N/A,,Mostly Cloudy,320,2013-03-04 09:53:00
3:53 AM,27.0,10.9,51,29.94,10.0,NW,20.7,29.9,N/A,,Overcast,320,2013-03-04 10:53:00
4:53 AM,27.0,8.1,45,29.98,10.0,NW,25.3,41.4,N/A,,Mostly Cloudy,320,2013-03-04 11:53:00
5:53 AM,27.0,8.1,45,30.02,10.0,North,28.8,39.1,N/A,,Overcast,350,2013-03-04 12:53:00
6:53 AM,24.1,10.0,55,30.09,10.0,NNW,24.2,32.2,N/A,,Scattered Clouds,340,2013-03-04 13:53:00
7:53 AM,24.1,10.9,57,30.14,10.0,NW,31.1,38.0,N/A,,Partly Cloudy,320,2013-03-04 14:53:00
8:53 AM,25.0,12.0,58,30.17,10.0,NW,26.5,32.2,N/A,,Partly Cloudy,320,2013-03-04 15:53:00
9:53 AM,24.1,10.9,57,30.19,10.0,NNW,21.9,28.8,N/A,,Mostly Cloudy,330,2013-03-04 16:53:00
10:53 AM,25.0,12.0,58,30.22,10.0,North,23.0,31.1,N/A,,Overcast,350,2013-03-04 17:53:00
11:53 AM,26.1,12.0,55,30.25,10.0,NW,28.8,41.4,N/A,,Overcast,320,2013-03-04 18:53:00
12:53 PM,27.0,12.9,56,30.25,10.0,North,19.6,32.2,N/A,,Overcast,350,2013-03-04 19:53:00
1:53 PM,28.0,12.9,53,30.26,10.0,North,19.6,27.6,N/A,,Partly Cloudy,360,2013-03-04 20:53:00
2:53 PM,28.0,12.0,51,30.28,10.0,North,21.9,31.1,N/A,,Clear,360,2013-03-04 21:53:00
3:53 PM,28.0,10.9,49,30.32,10.0,North,20.7,27.6,N/A,,Clear,360,2013-03-04 22:53:00
4:53 PM,28.0,10.9,49,30.33,10.0,NNW,21.9,27.6,N/A,,Clear,340,2013-03-04 23:53:00
5:53 PM,26.1,7.0,44,30.35,10.0,WNW,11.5,23.0,N/A,,Clear,300,2013-03-05 00:53:00
6:53 PM,26.1,8.1,47,30.38,10.0,NNW,9.2,-,N/A,,Clear,340,2013-03-05 01:53:00
7:53 PM,21.9,12.0,66,30.39,10.0,WSW,8.1,-,N/A,,Clear,250,2013-03-05 02:53:00
8:53 PM,21.0,12.0,68,30.41,10.0,Calm,Calm,-,N/A,,Clear,0,2013-03-05 03:53:00
9:53 PM,21.0,12.0,68,30.42,10.0,NW,8.1,-,N/A,,Clear,310,2013-03-05 04:53:00
10:53 PM,19.9,12.0,71,30.43,10.0,SSE,3.5,-,N/A,,Clear,150,2013-03-05 05:53:00